User: anonymous   Login
Location: Unspecified
(0.0000°N, 0.0000°E)
Time: 01:58:33
(UTC+00:00)
Language:

ONEWEB-0651 - Orbit

View from above orbital plane
View from above orbital plane
View from above satellite
View from above satellite

Ground track
Ground track

The orbit is defined by the following mean orbital elements,

1 56080U          26145.60740811 +.00000000 +00000-0 +37689-3 0 00003
2 56080  87.8987 263.7204 0002168  99.4462 260.6913 13.15547733    09
Epoch (UTC): 25 May 2026 14:34:40
Eccentricity: 0.0002168
inclination: 87.8987°
perigee height: 1200 km
apogee height: 1203 km
right ascension of ascending node: 263.7204°
argument of perigee: 99.4462°
revolutions per day: 13.15547733
mean anomaly at epoch: 260.6913°

The dashed part of the orbit path shows where the satellite is in the earth's shadow,  

DLR